Tracking 29892 objects as of 21-Nov-2024
HD Live streaming from Space Station
objects crossing your sky now

STARLINK-32394

Track STARLINK-32394 now!
10-day predictions
STARLINK-32394 is classified as:


NORAD ID: 61853
Int'l Code: 2024-202J
Perigee: 351.0 km
Apogee: 352.8 km
Inclination: 43.0 °
Period: 91.4 minutes
Semi major axis: 6722 km
RCS: Unknown
Launch date: November 7, 2024
Source: United States (US)
Launch site: AIR FORCE EASTERN TEST RANGE (AFETR)
Your satellite tracking list
Your tracking list is empty




NASA's NSSDC Master Catalog

Two Line Element Set (TLE):
1 61853U 24202J   24326.16667824 -.00257387  00000-0 -17310-2 0  9998
2 61853  43.0027  47.0705 0001365 264.8953 215.9770 15.74947073  3311
Source of the keplerian elements: AFSPC